Date String (YYYY-MM-DD hh:mm:ss) UTC,Instrument flags,Ambient pressure (hPa),Sample flow (lpm),Bypass flow (lpm),Sample temperature (°C),Ambient temperature (°C),ASC tube jacket temperature (°C),LED temperature (°C),Box temperature (°C),Sample RH (%),Span deviation,Mass concentration (μg/m³),Mass concentration (μg/m³),Mass concentration (μg/m³)
DateTimeUTC,F1_M11,P_M11,Q1_M11,Q2_M11,T1_M11,T2_M11,T3_M11,T4_M11,T5_M11,U1_M11,ZSPAN_M11,X0_M11,X2_M11,X1_M11
2022-11-18 06:00:00,,0833.2,5.00,0.00,22.1,22.1,00.0,30.8,24.0,09.4,0000.0,0005.72,0003.56,0003.38
2022-11-18 06:01:00,,0833.3,5.00,0.00,22.1,22.0,00.0,30.9,24.1,09.3,0000.0,0006.04,0003.60,0003.40
2022-11-18 06:02:00,,0833.3,4.99,0.00,22.1,21.6,00.0,30.9,24.0,09.3,0000.0,0006.15,0003.62,0003.42
2022-11-18 06:03:00,,0833.3,5.00,0.00,22.1,21.3,00.0,31.0,23.9,09.3,0000.0,0006.07,0003.62,0003.42
2022-11-18 06:04:00,,0833.2,5.01,0.00,22.1,21.1,00.0,31.0,23.9,09.3,0000.0,0006.00,0003.63,0003.42
2022-11-18 06:05:00,,0833.2,4.98,0.00,22.1,20.9,00.0,31.0,23.8,09.3,0000.0,0005.25,0003.61,0003.41
2022-11-18 06:06:00,,0833.2,5.00,0.00,22.0,20.8,00.0,31.0,23.8,09.4,0000.0,0005.30,0003.61,0003.40
2022-11-18 06:07:00,,0833.2,5.00,0.00,22.0,20.6,00.0,31.0,23.7,09.4,0000.0,0005.20,0003.58,0003.39
2022-11-18 06:08:00,,0833.2,5.00,0.00,22.0,20.6,00.0,31.0,23.7,09.4,0000.0,0005.27,0003.57,0003.37
2022-11-18 06:09:00,,0833.2,5.01,0.00,22.0,20.5,00.0,31.0,23.7,09.4,0000.0,0005.25,0003.56,0003.35
2022-11-18 06:10:00,,0833.1,5.01,0.00,22.0,21.1,00.0,30.9,23.8,09.4,0000.0,0005.10,0003.52,0003.32
2022-11-18 06:11:00,,0833.2,4.99,0.00,22.1,22.0,00.0,30.9,24.0,09.3,0000.0,0005.00,0003.49,0003.30
2022-11-18 06:12:00,,0833.2,5.00,0.00,22.2,22.2,00.0,30.9,24.2,09.3,0000.0,0004.82,0003.47,0003.28
2022-11-18 06:13:00,,0833.2,4.99,0.00,22.2,21.7,00.0,31.0,24.1,09.3,0000.0,0004.68,0003.44,0003.27
2022-11-18 06:14:00,,0833.2,5.00,0.00,22.2,21.4,00.0,31.0,24.0,09.3,0000.0,0004.79,0003.46,0003.28
2022-11-18 06:15:00,,0833.1,5.01,0.00,22.1,21.1,00.0,31.0,23.9,09.3,0000.0,0004.98,0003.50,0003.30
2022-11-18 06:16:00,,0833.2,5.00,0.00,22.1,20.9,00.0,31.0,23.9,09.3,0000.0,0005.22,0003.52,0003.31
2022-11-18 06:17:00,,0833.2,5.00,0.00,22.1,20.7,00.0,31.0,23.8,09.4,0000.0,0005.27,0003.54,0003.33
2022-11-18 06:18:00,,0833.2,4.99,0.00,22.0,20.5,00.0,31.0,23.7,09.4,0000.0,0005.37,0003.58,0003.36
2022-11-18 06:19:00,,0833.2,5.00,0.00,22.0,20.4,00.0,31.0,23.7,09.4,0000.0,0005.24,0003.59,0003.38
2022-11-18 06:20:00,,0833.2,5.01,0.00,21.9,20.4,00.0,31.0,23.6,09.4,0000.0,0005.23,0003.62,0003.41
2022-11-18 06:21:00,,0833.1,5.01,0.00,22.0,21.3,00.0,30.9,23.8,09.4,0000.0,0005.41,0003.68,0003.44
2022-11-18 06:22:00,,0833.1,5.00,0.00,22.1,22.1,00.0,30.9,24.1,09.3,0000.0,0005.43,0003.69,0003.47
2022-11-18 06:23:00,,0833.1,4.99,0.00,22.2,22.0,00.0,31.0,24.1,09.3,0000.0,0005.57,0003.71,0003.48
2022-11-18 06:24:00,,0833.1,4.98,0.00,22.2,21.6,00.0,31.0,24.0,09.3,0000.0,0005.71,0003.75,0003.51
2022-11-18 06:25:00,,0833.2,5.01,0.00,22.1,21.2,00.0,31.0,23.9,09.3,0000.0,0005.75,0003.77,0003.51
2022-11-18 06:26:00,,0833.1,5.01,0.00,22.1,20.9,00.0,31.0,23.8,09.3,0000.0,0005.57,0003.74,0003.51
2022-11-18 06:27:00,,0833.2,5.00,0.00,22.1,20.7,00.0,31.0,23.7,09.3,0000.0,0005.35,0003.73,0003.51
2022-11-18 06:28:00,,0833.1,4.99,0.00,22.0,20.6,00.0,31.0,23.7,09.3,0000.0,0006.16,0003.71,0003.51
2022-11-18 06:29:00,,0833.1,5.00,0.00,22.0,20.4,00.0,31.0,23.7,09.3,0000.0,0006.45,0003.69,0003.49
2022-11-18 06:30:00,,0833.1,5.00,0.00,22.0,20.4,00.0,31.0,23.6,09.3,0000.0,0006.44,0003.70,0003.48
2022-11-18 06:31:00,,0833.1,5.01,0.00,22.0,21.1,00.0,30.9,23.8,09.3,0000.0,0006.43,0003.68,0003.45
2022-11-18 06:32:00,,0833.2,5.00,0.00,22.1,22.0,00.0,30.9,24.0,09.2,0000.0,0006.41,0003.66,0003.43
2022-11-18 06:33:00,,0833.1,5.00,0.00,22.2,22.6,00.0,30.9,24.2,09.2,0000.0,0006.44,0003.66,0003.42
2022-11-18 06:34:00,,0833.1,4.99,0.00,22.2,22.1,00.0,31.0,24.1,09.2,0000.0,0006.31,0003.65,0003.40
2022-11-18 06:35:00,,0833.1,5.02,0.00,22.2,21.6,00.0,31.1,24.0,09.2,0000.0,0006.40,0003.66,0003.40
2022-11-18 06:36:00,,0833.1,5.00,0.00,22.2,21.2,00.0,31.1,23.9,09.2,0000.0,0006.56,0003.65,0003.39
2022-11-18 06:37:00,,0833.1,4.99,0.00,22.1,21.0,00.0,31.1,23.8,09.2,0000.0,0006.60,0003.66,0003.40
2022-11-18 06:38:00,,0833.1,5.00,0.00,22.1,20.8,00.0,31.1,23.8,09.2,0000.0,0006.62,0003.67,0003.40
2022-11-18 06:39:00,,0833.1,5.00,0.00,22.1,20.6,00.0,31.1,23.7,09.2,0000.0,0005.95,0003.68,0003.41
2022-11-18 06:40:00,,0833.1,5.00,0.00,22.0,20.4,00.0,31.1,23.7,09.2,0000.0,0005.53,0003.72,0003.43
2022-11-18 06:41:00,,0833.1,5.00,0.00,22.0,20.3,00.0,31.0,23.6,09.2,0000.0,0005.57,0003.72,0003.44
2022-11-18 06:42:00,,0833.1,5.01,0.00,22.0,20.9,00.0,31.0,23.7,09.2,0000.0,0005.57,0003.72,0003.46
2022-11-18 06:43:00,,0833.1,5.01,0.00,22.1,21.9,00.0,30.9,24.0,09.2,0000.0,0005.49,0003.73,0003.48
2022-11-18 06:44:00,,0833.1,4.98,0.00,22.2,22.1,00.0,31.0,24.1,09.2,0000.0,0005.59,0003.75,0003.50
2022-11-18 06:45:00,,0833.1,5.01,0.00,22.2,21.7,00.0,31.0,24.1,09.1,0000.0,0005.57,0003.76,0003.52
2022-11-18 06:46:00,,0833.1,5.00,0.00,22.2,21.3,00.0,31.0,24.0,09.1,0000.0,0005.36,0003.75,0003.54
2022-11-18 06:47:00,,0833.1,4.99,0.00,22.1,21.0,00.0,31.1,23.8,09.2,0000.0,0005.04,0003.74,0003.55
2022-11-18 06:48:00,,0833.1,5.00,0.00,22.1,20.8,00.0,31.1,23.8,09.2,0000.0,0005.26,0003.74,0003.56
2022-11-18 06:49:00,,0833.1,5.00,0.00,22.0,20.6,00.0,31.0,23.7,09.2,0000.0,0005.81,0003.75,0003.57
2022-11-18 06:50:00,,0833.1,5.00,0.00,22.0,20.5,00.0,31.0,23.6,09.2,0000.0,0005.96,0003.77,0003.58
2022-11-18 06:51:00,,0833.1,5.00,0.00,22.0,20.4,00.0,31.0,23.6,09.2,0000.0,0007.25,0003.78,0003.59
2022-11-18 06:52:00,,0833.1,5.00,0.00,21.9,20.4,00.0,31.0,23.6,09.3,0000.0,0007.63,0003.79,0003.60
2022-11-18 06:53:00,,0833.1,5.01,0.00,22.0,21.3,00.0,30.9,23.8,09.2,0000.0,0007.68,0003.81,0003.63
2022-11-18 06:54:00,,0833.1,5.01,0.00,22.1,22.1,00.0,30.9,24.0,09.2,0000.0,0007.73,0003.83,0003.64
2022-11-18 06:55:00,,0833.0,5.00,0.00,22.2,22.0,00.0,31.0,24.1,09.2,0000.0,0007.79,0003.83,0003.64
2022-11-18 06:56:00,,0833.0,4.99,0.00,22.2,21.6,00.0,31.0,24.0,09.2,0000.0,0008.00,0003.87,0003.65
2022-11-18 06:57:00,,0833.0,4.99,0.00,22.1,21.3,00.0,31.0,23.9,09.2,0000.0,0008.11,0003.88,0003.66
2022-11-18 06:58:00,,0833.1,5.01,0.00,22.1,21.0,00.0,31.0,23.8,09.2,0000.0,0008.09,0003.87,0003.65
2022-11-18 06:59:00,,0833.0,5.00,0.00,22.1,20.8,00.0,31.0,23.8,09.2,0000.0,0007.99,0003.88,0003.65
